GFSGBSN_925_spd_021.txt.gz
Wind_Speed
15 15 15 14 13 11 11 11 12 13 13 14 15 15 15 15 16 16 17 17 18 19 20 17 13 11 6 8 6 2 5 9 5 4 7 6 8 8 10 2 5 9 3 3 3 5 7
15 15 15 13 12 11 11 11 12 12 14 15 15 16 16 16 16 17 18 18 19 20 19 14 9 8 5 9 3 6 7 6 4 6 3 7 2 5 7 6 9 5 6 8 8 3 6
16 16 15 14 13 11 11 11 12 13 14 14 15 16 17 17 17 18 18 19 19 19 16 11 5 4 9 2 3 7 8 3 3 6 4 1 3 9 2 10 4 10 11 14 12 4 6
16 16 15 14 14 13 12 12 13 13 14 15 16 17 18 17 17 18 19 20 18 17 12 7 2 4 7 3 4 7 7 5 5 5 4 3 6 11 9 6 11 13 16 14 10 1 5
16 16 16 16 15 14 14 14 14 14 15 16 17 18 18 16 18 18 18 17 15 10 6 2 4 6 5 4 10 11 9 6 6 6 3 5 11 12 6 12 14 15 13 18 5 6 4
14 15 16 16 16 17 16 16 15 15 15 16 18 18 18 17 17 18 16 15 10 6 5 6 8 7 7 7 12 10 8 6 7 7 7 9 8 10 11 10 11 7 12 7 4 4 3
16 15 16 16 17 18 18 18 17 17 17 17 18 19 19 17 17 16 10 6 6 7 12 10 1 6 4 5 7 11 11 10 8 8 12 9 10 12 10 4 11 9 7 8 7 2 6
15 16 17 17 18 19 19 19 18 18 18 19 19 19 19 17 17 9 8 7 8 6 9 15 12 7 4 7 8 12 14 11 9 12 11 6 13 1 2 6 8 8 9 10 4 1 8
14 16 17 18 18 20 21 21 20 18 18 20 20 20 20 15 11 4 8 5 6 7 7 11 11 14 11 11 11 16 16 15 10 13 10 16 9 3 7 9 10 11 10 6 8 4 14
17 17 17 17 19 21 22 22 21 20 19 20 20 20 19 15 4 4 7 1 6 4 6 14 10 9 15 11 11 11 19 11 9 11 10 11 4 5 9 10 8 15 6 4 9 10 9
16 19 17 18 21 21 23 24 23 22 21 20 21 20 16 12 12 7 4 4 5 4 7 13 11 9 11 14 12 13 18 12 12 9 5 5 7 9 9 8 5 3 3 7 9 11 12
17 18 19 21 22 22 24 26 25 23 22 22 21 19 13 4 7 8 5 5 5 7 9 9 10 13 16 20 10 13 15 13 9 10 11 12 1 7 12 6 8 4 8 12 12 13 12
15 17 19 20 22 23 26 27 26 25 24 24 22 15 10 7 0 3 6 8 7 10 6 10 12 17 19 15 16 13 18 17 11 11 13 14 13 10 7 9 10 10 11 10 11 11 9
17 17 18 21 24 25 27 29 28 27 26 25 19 11 7 11 6 5 8 8 11 13 8 4 3 13 17 18 18 17 17 17 20 14 11 11 14 17 11 14 10 11 12 11 15 10 5
17 18 19 20 24 25 27 31 30 28 28 27 11 4 8 5 8 7 7 11 11 9 4 7 7 12 14 15 11 17 18 19 18 17 12 8 6 8 4 7 11 14 11 15 17 18 12
17 18 19 21 23 26 28 32 31 29 26 21 7 8 7 5 7 10 9 18 8 5 2 8 11 11 13 13 12 17 17 17 18 16 15 3 6 10 10 7 9 12 9 9 9 15 16
17 19 19 21 23 25 30 31 32 30 27 10 6 5 5 6 10 8 12 19 16 4 6 5 10 5 11 12 16 15 12 4 13 15 13 15 6 7 7 11 14 9 11 12 16 10 10
18 19 20 21 23 25 29 31 32 31 27 5 8 4 6 9 8 11 13 16 4 7 9 8 4 7 4 6 9 12 16 9 5 8 17 16 8 10 14 10 6 11 12 12 9 13 11
17 19 19 22 23 27 28 31 31 29 22 11 4 2 5 10 8 10 13 7 3 13 10 9 9 5 3 5 6 9 8 12 4 9 4 10 7 10 13 11 13 11 14 13 9 12 11
16 18 20 22 24 25 28 32 30 26 17 5 5 5 4 7 9 9 15 11 12 7 10 8 6 2 7 8 5 6 7 5 4 9 9 5 11 11 14 4 12 14 14 13 13 12 13
15 17 20 21 22 25 27 31 29 23 11 3 4 2 5 7 10 11 6 7 16 10 13 10 9 11 10 8 10 7 12 9 9 5 5 9 12 14 17 18 12 11 12 14 13 15 17
15 17 19 20 21 24 26 30 31 22 9 5 6 5 3 3 4 7 7 11 12 14 7 10 14 13 11 9 10 10 11 9 10 12 13 10 8 13 16 15 14 13 12 14 16 13 18
15 16 18 19 20 22 24 26 30 26 14 5 9 6 6 6 8 9 9 10 10 4 7 10 10 13 8 6 9 9 11 6 7 7 6 8 10 11 13 17 20 14 15 15 16 14 16
13 15 16 16 19 20 21 24 26 25 16 11 7 8 6 7 7 9 4 3 6 7 8 9 3 7 8 5 5 9 13 12 12 10 9 7 8 10 11 14 17 9 9 9 11 15 15
13 15 14 14 16 17 19 21 22 25 13 10 8 6 5 8 3 4 6 6 9 5 8 4 6 7 7 5 6 9 11 13 17 17 15 12 10 9 12 12 15 15 6 10 11 14 15
12 14 13 12 14 15 17 18 19 22 17 9 6 7 6 7 2 9 5 9 8 10 11 8 3 2 6 8 11 13 11 12 10 15 18 17 12 10 12 14 18 14 9 6 3 11 11
10 12 11 10 11 13 15 16 17 19 18 11 5 8 7 7 5 6 4 6 7 11 7 9 9 6 10 9 10 11 14 15 13 14 12 14 13 15 14 14 12 16 7 2 10 2 10
10 11 11 9 10 12 13 14 15 17 19 14 5 6 7 5 5 4 5 7 4 5 8 5 3 9 7 12 11 9 10 9 15 13 13 13 13 12 13 16 18 2 6 10 6 5 10
12 11 10 8 8 12 12 12 13 14 15 12 4 5 6 7 6 6 8 10 10 7 8 1 6 7 4 6 10 7 10 6 3 10 9 6 8 5 6 9 7 6 7 6 5 5 5

GFSGBSN_925_spd_024.txt.gz
Wind_Speed
15 16 15 14 12 12 12 12 13 14 15 16 17 18 18 18 17 18 19 19 20 20 21 19 16 13 7 8 4 5 6 6 4 9 12 8 9 10 13 6 3 10 5 0 3 4 5
17 15 15 14 13 12 12 13 14 15 16 17 17 19 20 20 18 19 20 20 20 19 20 17 13 11 5 11 6 8 8 6 8 6 4 8 8 11 9 5 8 6 6 9 8 8 5
17 17 16 15 14 13 13 13 14 15 16 17 18 20 20 20 19 20 20 20 20 19 17 14 10 7 10 7 2 7 7 7 2 9 6 3 8 9 8 7 11 5 11 12 15 11 4
16 17 17 17 16 15 15 15 15 15 16 17 19 20 20 20 20 22 21 20 18 17 14 10 8 4 7 3 4 7 9 6 5 6 8 4 8 12 12 12 8 11 14 14 15 8 6
15 16 17 17 17 17 17 17 16 16 17 18 20 21 20 20 21 22 21 20 17 16 12 8 7 6 11 3 9 11 10 9 6 7 6 7 9 12 14 10 12 16 12 15 6 7 4
17 16 17 17 18 19 18 18 17 17 18 19 21 22 22 20 20 22 20 18 19 14 8 6 12 9 10 9 10 14 12 7 7 6 8 8 8 11 11 11 13 12 11 10 17 3 9
15 16 16 17 19 19 19 19 18 18 19 20 22 23 23 20 18 20 21 9 5 4 9 10 8 11 7 4 7 10 12 9 11 6 10 12 9 12 16 11 10 10 13 12 9 1 4
16 17 17 18 19 20 20 20 19 19 19 20 22 24 23 20 18 16 13 6 8 7 9 14 18 13 2 6 10 12 13 10 11 11 13 10 11 16 3 7 8 10 10 10 10 3 3
17 17 17 19 20 20 21 21 20 20 20 20 22 24 22 19 18 9 10 12 8 9 7 14 17 18 11 12 13 14 16 16 11 12 14 14 2 6 2 5 8 11 10 11 6 10 9
15 19 18 19 20 21 23 23 22 21 20 20 21 22 21 20 8 9 11 1 7 5 5 13 14 12 17 12 15 15 20 14 9 13 13 10 14 2 5 9 11 13 2 1 7 10 12
17 18 20 21 22 23 24 24 23 23 21 21 21 21 18 14 14 7 6 6 7 6 5 12 16 11 14 15 4 15 19 17 16 11 8 12 12 5 9 10 4 11 4 8 9 11 14
17 18 18 20 22 24 25 25 25 24 23 22 21 20 16 3 8 12 10 8 8 6 10 8 10 12 17 16 17 15 16 18 11 13 10 16 2 7 11 8 7 11 6 10 12 12 12
18 19 19 21 22 23 26 28 27 25 24 24 21 18 13 10 4 5 8 8 5 9 15 12 15 15 20 17 20 12 18 17 14 10 12 12 13 10 7 8 8 10 9 9 10 12 8
18 19 20 21 23 25 27 30 28 26 25 27 23 16 9 15 7 8 9 7 10 12 22 8 11 18 19 19 20 17 17 16 19 17 11 12 14 19 12 11 11 12 10 8 14 14 3
18 19 20 22 24 26 30 30 29 28 26 29 20 6 8 6 11 8 6 10 11 17 11 8 8 8 17 20 13 19 19 18 18 18 16 11 10 13 14 8 10 12 11 13 13 15 14
18 20 20 22 25 27 30 31 31 29 25 23 11 12 13 11 9 8 7 16 18 7 8 3 8 12 15 19 19 20 17 18 19 20 17 12 5 9 10 4 8 12 11 9 8 13 14
17 19 20 22 25 28 30 31 32 32 26 12 3 5 9 8 10 6 10 17 17 9 3 4 11 16 15 13 15 14 13 17 19 18 17 14 5 9 11 8 10 7 11 10 14 12 13
17 19 20 22 26 28 30 31 32 33 29 7 7 4 9 12 8 8 12 17 18 10 5 7 7 15 10 13 16 14 12 14 10 12 16 12 7 11 14 11 13 13 13 11 7 11 12
16 18 21 23 24 28 29 31 30 29 27 11 4 3 7 13 7 11 15 21 22 10 8 7 7 14 5 10 1 7 12 11 8 4 7 3 9 10 12 12 15 8 12 14 13 11 14
15 17 20 22 23 27 29 32 29 26 21 6 5 4 5 6 11 15 15 19 16 5 14 9 11 11 8 9 8 8 4 6 4 4 8 6 10 8 12 1 1 15 11 13 15 10 13
15 17 19 22 23 26 28 32 30 23 15 3 4 4 6 6 11 13 14 11 12 12 10 9 8 10 9 8 13 9 11 6 6 1 4 4 9 12 15 18 17 15 16 17 14 16 15
16 17 18 20 22 25 27 31 31 24 19 6 6 6 11 9 4 8 11 11 9 17 11 14 11 11 12 9 11 7 11 15 5 10 7 11 9 11 16 19 20 19 19 14 16 18 15
15 17 18 19 21 23 26 28 30 29 16 7 14 14 6 6 5 6 10 9 12 16 10 6 4 13 13 7 7 10 11 7 9 7 4 7 7 8 14 16 15 15 17 14 15 16 17
14 16 17 17 19 21 23 26 27 27 21 9 12 13 6 10 8 10 15 12 9 8 6 4 2 9 11 11 6 6 7 7 6 4 6 5 5 7 11 13 15 15 11 8 14 14 15
14 15 16 16 16 19 21 23 25 25 15 12 11 8 5 9 13 6 3 2 3 3 4 7 2 10 9 8 3 5 8 11 13 12 11 9 6 8 10 13 14 17 4 16 14 13 14
12 14 15 15 14 17 19 21 23 24 18 12 11 8 8 7 8 13 12 4 7 8 7 13 7 6 7 6 6 11 8 11 9 15 16 15 9 8 12 13 16 13 14 13 19 6 13
10 11 14 14 12 16 18 19 21 22 20 16 7 10 7 7 2 8 6 9 10 11 7 11 12 5 6 7 10 12 13 16 15 14 11 13 11 15 12 13 16 17 15 20 13 7 12
8 11 13 13 11 14 16 18 19 21 19 18 9 7 7 6 9 7 9 9 11 7 8 11 4 3 5 7 8 8 9 10 15 14 10 13 11 12 11 14 20 13 11 4 1 6 8
10 10 11 11 11 11 14 16 17 19 19 14 6 9 9 6 7 12 11 12 10 10 6 8 8 3 4 6 8 8 11 10 9 8 14 3 11 9 9 7 7 11 13 11 8 4 7

GFSGBSN_925_spd_030.txt.gz
Wind_Speed
15 16 14 13 12 13 13 14 15 16 17 18 19 18 18 19 20 21 21 20 20 19 18 18 17 15 5 3 6 3 2 4 4 3 4 1 3 2 3 4 2 3 4 4 9 8 1
17 16 16 15 14 13 14 14 15 16 18 19 19 19 19 20 22 23 21 20 19 19 17 16 15 12 2 2 4 3 3 4 5 5 6 4 4 2 4 3 0 6 2 2 4 2 2
16 16 17 16 15 15 14 15 15 15 17 19 20 20 21 21 23 24 24 21 21 19 16 15 12 7 1 9 4 4 5 4 6 9 4 11 8 7 6 7 4 7 1 6 8 6 5
16 16 17 17 17 16 15 15 15 16 17 19 20 21 21 21 23 24 25 22 22 20 14 13 11 3 5 2 8 10 4 9 12 13 11 13 9 3 2 4 9 6 5 3 8 4 7
15 16 17 17 18 17 17 16 16 17 18 19 20 21 21 21 23 25 25 24 23 16 11 9 3 3 8 6 9 12 10 11 9 11 10 12 3 1 6 3 5 6 4 5 8 4 5
16 16 17 18 17 18 18 17 17 18 19 20 21 22 21 22 22 25 25 25 13 4 0 1 2 3 6 4 7 10 14 13 5 3 5 1 3 2 3 5 3 5 5 4 4 6 4
17 17 17 18 19 19 19 18 18 18 19 21 22 23 22 21 21 23 25 7 6 4 1 5 4 4 6 9 6 6 15 5 2 4 3 3 3 6 8 7 8 6 1 3 3 7 4
16 18 18 19 20 21 20 20 19 19 20 20 22 23 23 21 19 18 12 2 4 4 7 10 13 11 22 14 5 3 10 4 2 4 2 5 5 11 7 7 7 1 2 6 5 5 3
16 17 18 19 20 21 21 21 21 20 20 21 22 23 24 21 17 4 10 8 17 15 0 8 7 6 6 9 8 7 8 6 3 4 6 6 10 5 6 6 3 3 4 4 6 3 2
18 18 20 20 21 22 23 23 22 21 21 21 21 22 23 25 4 12 6 20 19 11 4 7 6 8 5 6 5 13 14 6 4 9 4 6 10 8 7 2 3 3 1 3 4 5 1
17 18 20 20 22 23 26 25 24 23 22 21 21 21 20 17 13 5 12 17 15 3 2 4 4 6 9 9 2 3 13 4 7 10 4 7 6 3 3 5 4 8 2 3 4 5 5
17 18 19 20 22 25 26 26 25 24 23 22 21 21 21 9 10 7 19 13 4 5 5 5 5 7 7 4 6 4 4 5 3 3 3 10 6 3 7 5 4 1 6 9 6 4 3
17 19 19 20 23 25 27 27 27 26 25 24 23 21 20 13 4 9 15 4 5 3 6 4 3 8 9 8 11 4 4 7 5 2 5 7 6 6 2 1 7 6 7 4 5 4 5
18 19 20 22 24 25 29 29 29 28 27 27 25 18 12 17 10 7 7 5 3 6 6 5 3 2 8 6 8 6 6 6 4 5 2 2 7 5 2 6 6 4 8 5 4 2 5
18 19 21 23 26 27 30 31 32 31 28 29 20 10 7 9 9 6 5 3 7 6 2 7 9 5 7 5 5 6 9 9 10 8 7 4 6 4 6 6 9 3 2 6 6 1 3
18 20 21 24 27 28 30 32 33 33 29 20 17 8 6 4 14 7 4 6 6 4 7 5 1 4 7 10 6 7 8 7 7 12 9 6 4 5 9 7 2 6 5 3 4 1 1
18 19 22 25 27 29 31 32 34 35 33 16 6 4 5 12 15 5 4 7 5 4 7 4 5 4 4 2 4 6 9 5 11 11 10 7 5 11 0 1 7 3 2 6 5 5 5
18 20 22 23 26 28 30 33 33 34 35 16 7 2 17 22 3 1 2 4 7 6 5 5 4 4 3 4 2 2 10 10 6 9 9 9 6 6 3 7 2 3 4 5 5 4 2
18 19 22 23 25 28 30 32 32 30 28 10 3 3 12 9 2 2 6 6 4 5 6 5 5 2 1 2 4 3 6 6 2 5 8 6 1 0 7 7 6 2 1 4 5 3 4
16 19 21 23 25 28 29 32 32 29 20 3 2 3 4 4 2 2 3 5 4 5 11 6 6 3 5 5 5 4 6 4 5 4 3 7 4 8 7 6 4 3 6 5 4 3 3
16 18 21 22 24 27 29 32 32 29 18 5 2 2 2 3 5 6 4 4 5 5 5 5 3 3 3 3 5 6 5 6 6 10 5 5 4 3 4 2 2 1 5 8 5 4 4
15 18 20 22 23 25 28 31 33 30 11 5 2 3 4 3 5 4 8 5 6 7 4 5 5 2 9 5 2 3 3 5 1 7 5 6 1 2 5 4 7 4 8 8 2 6 1
14 17 19 21 22 24 27 29 30 30 15 7 7 6 2 5 6 6 5 6 4 3 3 5 5 6 8 3 3 5 2 1 2 3 4 3 3 3 3 4 5 4 4 3 6 4 3
13 15 17 20 21 22 24 26 27 28 24 4 3 4 3 4 3 4 13 12 6 4 3 5 10 6 4 5 2 2 4 8 8 7 4 3 3 2 2 4 1 6 5 15 13 8 8
12 13 15 18 20 20 22 24 26 26 21 7 5 4 2 3 3 8 16 12 5 2 5 6 4 2 2 6 4 5 5 4 5 3 4 4 4 3 4 2 4 5 3 2 3 3 3
12 11 13 16 19 19 20 22 24 25 21 12 4 9 2 2 3 6 5 6 4 5 6 3 7 7 7 3 4 3 2 4 1 3 1 6 6 4 2 4 6 7 3 4 5 1 8
12 11 12 15 17 18 19 20 22 23 21 17 4 14 1 1 3 5 4 4 5 4 1 2 7 7 4 3 3 2 2 2 2 4 4 2 2 5 2 3 6 6 5 2 2 6 9
11 11 11 13 15 16 17 18 19 21 20 17 2 15 7 1 6 3 3 3 5 4 3 5 3 6 5 4 3 2 2 3 1 4 4 6 5 5 2 3 6 6 4 2 4 3 6
10 11 11 11 13 15 16 17 17 18 19 17 5 10 12 4 6 14 24 18 14 7 2 6 5 1 1 3 2 1 2 2 3 3 4 2 6 5 6 4 2 5 6 4 3 4 5

GFSGBSN_925_spd_033.txt.gz
Wind_Speed
15 15 15 14 13 12 13 14 15 16 17 18 17 17 18 20 21 22 21 20 18 18 18 18 18 18 6 3 6 3 2 2 3 2 2 2 3 2 2 3 4 5 6 7 13 4 7
16 15 16 16 15 14 14 14 15 16 17 18 19 19 19 21 22 23 22 20 19 18 18 17 15 14 4 3 2 3 3 3 2 0 1 3 2 3 1 4 1 5 8 8 4 3 2
14 15 16 16 16 15 14 15 15 16 18 19 21 20 20 21 23 24 24 22 21 19 18 14 11 8 1 9 3 5 4 4 3 3 3 2 3 3 1 5 1 4 4 6 4 0 1
14 15 16 16 16 16 15 15 16 17 18 20 21 21 22 22 24 26 25 23 22 21 15 9 9 1 6 2 4 9 6 7 6 10 10 10 4 3 2 4 7 4 5 4 7 3 4
15 15 16 17 18 18 17 16 17 17 18 19 21 22 23 24 24 27 25 23 23 15 8 5 1 2 8 6 5 13 11 5 6 10 6 10 5 3 6 3 6 7 2 4 9 4 4
16 16 17 18 18 19 18 17 17 18 19 21 22 23 23 24 24 26 24 22 5 4 3 1 0 2 6 1 4 8 15 11 3 5 6 5 5 3 4 5 3 4 4 5 6 5 2
15 15 18 18 19 20 19 19 18 18 19 21 22 24 24 24 23 22 24 5 6 4 2 5 2 4 5 10 5 6 11 5 2 7 2 4 5 3 5 5 4 3 4 6 5 5 5
17 18 18 19 20 20 21 20 20 19 20 21 22 23 24 25 22 18 9 4 5 4 8 7 9 7 14 4 4 3 9 4 2 2 2 6 4 8 4 5 6 6 5 6 5 3 0
17 18 18 19 20 21 22 21 20 20 20 20 21 23 24 24 18 5 9 2 19 5 2 8 6 6 5 11 7 7 9 5 3 3 3 5 6 3 3 4 5 3 3 3 5 6 6
17 18 18 19 20 22 23 23 21 21 20 21 21 22 23 24 3 13 4 17 16 4 5 7 5 8 6 6 5 10 11 6 2 6 6 5 5 4 5 6 7 3 5 2 2 4 2
16 18 18 20 21 22 23 24 23 22 21 21 21 21 20 18 14 5 9 16 8 3 3 3 4 2 2 10 3 3 8 4 7 4 5 6 2 7 4 6 5 8 3 2 3 4 2
18 19 19 20 22 23 25 25 24 24 23 23 21 21 20 9 10 8 15 10 2 5 6 6 4 4 5 2 2 3 4 4 3 3 3 7 3 5 6 4 4 3 4 7 5 3 3
18 19 20 22 24 25 26 26 26 26 25 24 23 20 18 11 3 4 16 3 5 3 5 5 1 1 3 6 4 3 5 4 6 4 2 5 4 4 4 1 3 7 7 4 4 5 5
17 19 20 23 24 25 27 28 28 28 28 26 23 17 12 14 5 5 4 5 3 5 6 5 4 0 6 3 3 5 5 4 2 4 3 3 6 2 1 4 6 3 7 5 4 2 5
16 18 19 22 24 26 27 30 29 30 29 29 19 9 6 5 12 6 5 3 7 6 4 6 8 0 3 4 2 4 7 7 8 7 7 5 5 3 3 4 7 3 2 4 7 3 3
17 18 20 21 24 26 28 31 31 31 30 21 14 6 4 2 14 7 4 6 5 4 5 4 2 2 1 5 7 7 8 5 5 9 5 6 2 3 5 4 4 7 7 3 3 2 2
16 17 19 22 24 26 29 31 32 32 31 18 4 3 3 11 8 5 4 6 4 6 4 1 2 3 4 2 7 6 7 4 9 7 6 5 4 6 3 1 7 2 2 7 5 4 5
15 17 20 21 23 27 29 31 32 33 31 15 4 3 3 16 3 1 2 4 3 4 3 4 2 5 4 2 2 1 7 9 6 9 10 8 5 4 9 1 3 3 4 5 5 3 2
15 18 20 22 23 26 29 31 31 32 25 8 2 2 4 4 2 2 5 5 3 3 5 3 3 2 3 3 1 3 2 3 3 9 10 8 1 2 9 7 4 7 3 6 5 3 3
15 18 20 21 22 24 29 31 32 32 21 2 1 2 4 3 1 5 1 5 4 4 6 5 5 3 4 3 4 2 5 3 6 4 9 9 4 7 7 7 4 4 4 4 5 3 4
13 16 18 19 21 24 29 31 31 31 13 3 3 0 2 2 2 2 3 3 3 4 3 6 2 4 4 1 3 5 4 6 5 7 4 5 5 3 3 5 4 3 3 4 4 4 4
12 14 17 20 21 23 27 30 31 31 11 4 2 3 4 2 4 4 5 3 7 7 5 4 3 3 4 5 4 1 1 5 2 6 4 3 2 3 3 3 5 3 4 4 4 2 1
11 14 15 19 21 22 25 28 30 30 15 6 5 3 2 3 5 3 1 4 6 4 3 3 3 5 5 5 6 5 2 2 1 1 3 3 5 3 3 2 4 4 2 3 5 4 2
12 13 14 17 20 21 21 24 27 28 26 5 4 2 2 2 2 2 4 7 7 5 3 4 6 3 4 4 2 3 3 2 7 6 1 3 4 3 2 3 2 5 4 7 10 2 2
12 12 13 16 18 20 20 21 23 25 24 8 5 3 2 1 3 5 9 8 6 7 4 3 6 3 4 5 4 5 5 5 4 4 5 4 4 4 4 3 3 3 4 3 3 2 5
10 12 13 15 16 18 20 20 21 23 24 9 7 9 1 2 3 4 3 4 3 5 7 5 4 7 5 4 4 3 3 4 3 3 4 6 7 5 2 4 5 5 1 2 4 4 9
9 11 12 13 15 17 18 19 20 21 22 14 6 14 1 0 4 2 2 2 3 2 2 4 7 8 3 3 3 2 2 2 2 3 3 3 3 4 3 3 6 5 4 3 3 7 5
9 10 11 12 13 15 16 17 18 19 21 18 2 10 6 1 5 3 2 1 4 3 2 5 2 4 4 4 2 1 1 2 1 2 1 3 4 2 3 4 5 3 5 3 5 1 3
10 10 10 11 12 13 15 16 17 17 19 19 4 9 12 4 5 11 23 23 14 14 2 3 2 1 1 3 2 2 2 3 1 2 3 1 4 3 5 5 3 4 4 2 3 4 4